Location: Colonia Mina de C?rbuni
(46.1667°N, 22.7167°E)
Time: 08:19:05
(UTC+00:00)

Vanguard 2 - Pass Details

Date: 18 April 2024
Orbit: 552 x 2914 km, 32.9° (Epoch: 27 May)

Event Time Altitude Azimuth Distance (km) Brightness Sun altitude
Rises 00:39:13 0° 227° (SW) 6,091 - -25.8°
Reaches altitude 10° 00:43:18 10° 220° (SW) 5,316 - -25.4°
Exits shadow 00:50:47 30° 199° (SSW) 4,182 10.7 -24.6°
Maximum altitude 00:58:09 41° 158° (SSE) 3,756 10.7 -23.8°
Drops below altitude 10° 01:13:15 10° 96° (E) 5,422 12.3 -22.0°
Sets 01:17:25 0° 90° (E) 6,222 12.8 -21.5°
